Golden Valley, AZ

10:09 PM MST on February 13, 2016 (GMT -0700)
Kingman

Weather History for KIGM - March, 2013

Change the Weather History Date:

Sunday, March 31, 2013

  Actual Average Record
Temperature  
Mean Temperature 63 °F 54 °F  
Max Temperature 79 °F 69 °F 88 °F (1934)
Min Temperature 47 °F 40 °F 26 °F (1936)
Degree Days  
Heating Degree Days 2 11  
Month to date heating degree days 258 419  
Since 1 July heating degree days 2725 2831  
Cooling Degree Days 0 0  
Month to date cooling degree days 6 3  
Year to date cooling degree days 6 3  
Growing Degree Days 15 (Base 50)    
Moisture  
Dew Point 29 °F    
Average Humidity 28    
Maximum Humidity 39    
Minimum Humidity 17    
Precipitation  
Precipitation 0.00 in 0.02 in 1.02 in (1912)
Month to date precipitation 0.14 0.76  
Year to date precipitation 1.13 2.92  
Sea Level Pressure  
Sea Level Pressure 29.84 in    
Wind  
Wind Speed 13 mph (South)    
Max Wind Speed 28 mph    
Max Gust Speed 35 mph    
Visibility 10 miles    
Events      
T = Trace of Precipitation, MM = Missing Value Source: NWS Daily Summary

Daily Weather History Graph

Daily Weather History Graph

Search for Another Location

Airport or City:

Trip Planner

Search our weather history database for the weather conditions in past years. The results will help you decide how hot, cold, wet, or windy it might be!

Date:

Astronomy

Mar. 31, 2013 Rise Set
Actual Time 6:23 AM MST 6:56 PM MST
Civil Twilight 5:57 AM MST 7:22 PM MST
Nautical Twilight 5:27 AM MST 7:52 PM MST
Astronomical Twilight 4:57 AM MST 8:23 PM MST
Moon No Moon Rise 9:24 AM MST (3/31)
Length of Visible Light 13h 24m
Length of Day
12h 33m
Waning Gibbous, 76% of the Moon is Illuminated
Mar 31
Waning Gibbous
Apr 2
Last Quarter
Apr 10
New
Apr 18
First Quarter
Apr 25
Full

Hourly Weather History & Observations

Time (MST) Temp. Dew Point Humidity Pressure Visibility Wind Dir Wind Speed Gust Speed Precip Events Conditions
12:51 AM 55.0 °F 26.1 °F 33% 29.89 in 10.0 mi Calm Calm - N/A   Clear
1:51 AM 55.0 °F 26.1 °F 33% 29.88 in 10.0 mi Calm Calm - N/A   Clear
2:51 AM 48.0 °F 25.0 °F 41% 29.88 in 10.0 mi Calm Calm - N/A   Clear
3:51 AM 52.0 °F 27.0 °F 38% 29.88 in 10.0 mi SE 9.2 mph - N/A   Clear
4:51 AM 51.1 °F 27.0 °F 39% 29.87 in 10.0 mi SE 11.5 mph - N/A   Clear
5:51 AM 54.0 °F 27.0 °F 35% 29.87 in 10.0 mi SE 12.7 mph - N/A   Clear
6:51 AM 52.0 °F 27.0 °F 38% 29.90 in 10.0 mi SE 9.2 mph - N/A   Clear
7:51 AM 64.0 °F 28.9 °F 27% 29.89 in 10.0 mi ESE 12.7 mph - N/A   Clear
8:51 AM 66.0 °F 28.0 °F 24% 29.90 in 10.0 mi WSW 5.8 mph - N/A   Clear
9:51 AM 73.0 °F 32.0 °F 22% 29.89 in 10.0 mi WSW 17.3 mph 23.0 mph N/A   Clear
10:51 AM 73.9 °F 30.9 °F 21% 29.89 in 10.0 mi SW 13.8 mph 21.9 mph N/A   Clear
11:51 AM 75.9 °F 30.9 °F 19% 29.89 in 10.0 mi SSW 19.6 mph 25.3 mph N/A   Clear
12:51 PM 77.0 °F 30.9 °F 19% 29.87 in 10.0 mi SW 21.9 mph 32.2 mph N/A   Clear
1:51 PM 78.1 °F 30.0 °F 17% 29.84 in 10.0 mi SSW 25.3 mph 32.2 mph N/A   Clear
2:51 PM 77.0 °F 30.0 °F 18% 29.83 in 10.0 mi SSW 15.0 mph 29.9 mph N/A   Scattered Clouds
3:51 PM 77.0 °F 30.9 °F 19% 29.80 in 10.0 mi South 21.9 mph 27.6 mph N/A   Scattered Clouds
4:51 PM 75.0 °F 32.0 °F 21% 29.80 in 10.0 mi SSW 16.1 mph 27.6 mph N/A   Partly Cloudy
5:51 PM 72.0 °F 32.0 °F 23% 29.79 in 10.0 mi SSW 15.0 mph - N/A   Clear
6:51 PM 70.0 °F 32.0 °F 25% 29.80 in 10.0 mi South 16.1 mph - N/A   Partly Cloudy
7:51 PM 64.9 °F 34.0 °F 32% 29.78 in 10.0 mi South 9.2 mph - N/A   Partly Cloudy
8:51 PM 61.0 °F 33.1 °F 35% 29.80 in 10.0 mi South 9.2 mph - N/A   Clear
9:51 PM 59.0 °F 30.9 °F 35% 29.80 in 10.0 mi South 11.5 mph - N/A   Clear
10:51 PM 59.0 °F 27.0 °F 29% 29.79 in 10.0 mi SW 12.7 mph - N/A   Clear
11:51 PM 59.0 °F 21.9 °F 24% 29.78 in 10.0 mi SSW 13.8 mph - N/A   Clear